When you browse on this site, cookies collect data to enhance your experience and personalize the content and advertising you see.
Visit our Privacy Policy to learn more. By continuing to use the site, you agree to this use of cookies and data.
  • In Deutschland
  • Länderverzeichnis
  • Für 7 Tage
  • Wassertemperatur
  • Wetterkarte
  • Widgets
  • user-avatar
    Anmelden

    Stündliche Wetter Ischgl

    Heute, 17 November, Sonntag

    Zeit Temperatur Niederschläge Wind Luftdruck Luftfeuchtigkeit
    00:00 -8°C° 0.2 mm 1 m/S 565 mmHg 91%
    01:00 -7°C° 0 mm 1 m/S 565 mmHg 94%
    02:00 -7°C° 1.8 mm 1 m/S 564 mmHg 95%
    03:00 -7°C° 1.8 mm 1 m/S 564 mmHg 96%
    04:00 -7°C° 1.8 mm 1 m/S 563 mmHg 97%
    05:00 -7°C° 3.6 mm 1 m/S 563 mmHg 97%
    06:00 -7°C° 3.6 mm 1 m/S 562 mmHg 97%
    07:00 -7°C° 0 mm 0 m/S 562 mmHg 97%
    08:00 -6°C° 2.3 mm 1 m/S 562 mmHg 96%
    09:00 -4°C° 2.3 mm 1 m/S 562 mmHg 96%
    10:00 -4°C° 2.3 mm 1 m/S 562 mmHg 96%
    11:00 -3°C° 2.3 mm 1 m/S 562 mmHg 97%
    12:00 -3°C° 2.3 mm 1 m/S 562 mmHg 97%
    13:00 -4°C° 2.3 mm 2 m/S 562 mmHg 98%
    14:00 -4°C° 1.7 mm 2 m/S 562 mmHg 98%
    15:00 -4°C° 1.7 mm 2 m/S 562 mmHg 97%
    16:00 -3°C° 1.7 mm 2 m/S 562 mmHg 97%
    17:00 -4°C° 0.6 mm 2 m/S 562 mmHg 97%
    18:00 -5°C° 0.6 mm 2 m/S 562 mmHg 97%
    19:00 -6°C° 0.6 mm 2 m/S 562 mmHg 98%
    20:00 -6°C° 0.5 mm 2 m/S 562 mmHg 96%
    21:00 -6°C° 0.5 mm 2 m/S 563 mmHg 95%
    22:00 -6°C° 0.5 mm 2 m/S 563 mmHg 94%
    23:00 -7°C° 0.2 mm 2 m/S 563 mmHg 93%

    Morgen, 18 November, Montag

    Zeit Temperatur Niederschläge Wind Luftdruck Luftfeuchtigkeit
    00:00 -8°C° 0.2 mm 2 m/S 563 mmHg 92%
    01:00 -9°C° 0.2 mm 2 m/S 562 mmHg 92%
    02:00 -12°C° 0.1 mm 3 m/S 562 mmHg 91%
    03:00 -12°C° 0.1 mm 3 m/S 562 mmHg 90%
    04:00 -13°C° 0.1 mm 3 m/S 561 mmHg 90%
    05:00 -14°C° 0 mm 3 m/S 561 mmHg 89%
    06:00 -15°C° 0 mm 3 m/S 561 mmHg 89%
    07:00 -16°C° 0 mm 3 m/S 561 mmHg 88%
    08:00 -14°C° 0 mm 3 m/S 563 mmHg 88%
    09:00 -13°C° 0 mm 3 m/S 564 mmHg 87%
    10:00 -9°C° 0 mm 2 m/S 565 mmHg 87%
    11:00 -8°C° 0 mm 2 m/S 565 mmHg 84%
    12:00 -7°C° 0 mm 2 m/S 566 mmHg 82%
    13:00 -6°C° 0 mm 2 m/S 566 mmHg 79%
    14:00 -8°C° 0 mm 2 m/S 566 mmHg 82%
    15:00 -9°C° 0 mm 2 m/S 566 mmHg 85%
    16:00 -10°C° 0 mm 2 m/S 565 mmHg 88%
    17:00 -12°C° 0 mm 2 m/S 565 mmHg 88%
    18:00 -12°C° 0 mm 2 m/S 565 mmHg 88%
    19:00 -14°C° 0 mm 3 m/S 565 mmHg 88%
    20:00 -14°C° 0 mm 3 m/S 565 mmHg 88%
    21:00 -14°C° 0 mm 3 m/S 566 mmHg 87%
    22:00 -14°C° 0 mm 3 m/S 566 mmHg 86%
    23:00 -14°C° 0 mm 3 m/S 566 mmHg 87%

    übermorgen, 19 November, Dienstag

    Zeit Temperatur Niederschläge Wind Luftdruck Luftfeuchtigkeit
    00:00 -14°C° 0 mm 3 m/S 566 mmHg 88%
    01:00 -13°C° 0 mm 3 m/S 566 mmHg 89%
    02:00 -13°C° 0 mm 3 m/S 566 mmHg 89%
    03:00 -13°C° 0 mm 3 m/S 566 mmHg 90%
    04:00 -13°C° 0 mm 3 m/S 566 mmHg 90%
    05:00 -13°C° 0 mm 3 m/S 566 mmHg 90%
    06:00 -13°C° 0 mm 3 m/S 566 mmHg 90%
    07:00 -13°C° 0 mm 3 m/S 566 mmHg 90%
    08:00 -10°C° 0 mm 3 m/S 567 mmHg 90%
    09:00 -8°C° 0 mm 3 m/S 568 mmHg 91%
    10:00 -7°C° 0 mm 3 m/S 569 mmHg 91%
    11:00 -5°C° 0 mm 2 m/S 570 mmHg 93%
    12:00 -4°C° 0 mm 2 m/S 570 mmHg 95%
    13:00 -3°C° 0 mm 2 m/S 571 mmHg 96%
    14:00 -4°C° 0 mm 2 m/S 570 mmHg 96%
    15:00 -2°C° 0 mm 1 m/S 570 mmHg 95%
    16:00 -3°C° 0 mm 1 m/S 570 mmHg 94%
    17:00 -6°C° 0 mm 2 m/S 570 mmHg 93%
    18:00 -6°C° 0 mm 2 m/S 570 mmHg 93%
    19:00 -7°C° 0 mm 2 m/S 570 mmHg 92%
    20:00 -7°C° 0 mm 2 m/S 570 mmHg 91%
    21:00 -7°C° 0 mm 2 m/S 570 mmHg 91%
    22:00 -8°C° 0 mm 2 m/S 570 mmHg 90%
    23:00 -8°C° 0 mm 2 m/S 570 mmHg 90%

    20 November, Mittwoch

    Zeit Temperatur Niederschläge Wind Luftdruck Luftfeuchtigkeit
    00:00 -8°C° 0 mm 2 m/S 569 mmHg 90%
    01:00 -8°C° 0 mm 2 m/S 569 mmHg 90%
    02:00 -8°C° 0 mm 2 m/S 569 mmHg 90%
    03:00 -9°C° 0 mm 2 m/S 569 mmHg 89%
    04:00 -9°C° 0 mm 2 m/S 569 mmHg 89%
    05:00 -9°C° 0 mm 2 m/S 569 mmHg 89%
    06:00 -9°C° 0 mm 2 m/S 569 mmHg 89%
    07:00 -9°C° 0 mm 2 m/S 569 mmHg 88%
    08:00 -7°C° 0 mm 2 m/S 569 mmHg 89%
    09:00 -6°C° 0 mm 2 m/S 570 mmHg 90%
    10:00 -5°C° 0 mm 3 m/S 571 mmHg 90%
    11:00 -5°C° 0 mm 3 m/S 571 mmHg 92%
    12:00 -4°C° 0 mm 3 m/S 571 mmHg 95%
    13:00 -3°C° 0 mm 2 m/S 571 mmHg 97%
    14:00 -4°C° 0 mm 3 m/S 570 mmHg 95%
    15:00 -5°C° 0 mm 3 m/S 570 mmHg 93%
    16:00 -5°C° 0 mm 3 m/S 569 mmHg 92%
    17:00 -6°C° 0 mm 3 m/S 569 mmHg 91%
    18:00 -7°C° 0 mm 3 m/S 569 mmHg 90%
    19:00 -7°C° 0 mm 3 m/S 568 mmHg 90%
    20:00 -8°C° 0 mm 3 m/S 568 mmHg 90%
    21:00 -8°C° 0 mm 3 m/S 568 mmHg 90%
    22:00 -8°C° 0 mm 3 m/S 568 mmHg 90%
    23:00 -9°C° 0 mm 3 m/S 567 mmHg 90%

    21 November, Donnerstag

    Zeit Temperatur Niederschläge Wind Luftdruck Luftfeuchtigkeit
    00:00 -9°C° 0 mm 3 m/S 567 mmHg 90%
    01:00 -10°C° 0 mm 3 m/S 567 mmHg 90%
    02:00 -10°C° 0 mm 3 m/S 566 mmHg 90%
    03:00 -10°C° 0 mm 3 m/S 566 mmHg 90%
    04:00 -10°C° 0 mm 3 m/S 566 mmHg 90%
    05:00 -10°C° 0 mm 3 m/S 566 mmHg 90%
    06:00 -10°C° 0 mm 3 m/S 566 mmHg 90%
    07:00 -10°C° 0 mm 3 m/S 566 mmHg 90%
    08:00 -9°C° 0 mm 3 m/S 566 mmHg 90%
    09:00 -8°C° 0 mm 3 m/S 567 mmHg 91%
    10:00 -6°C° 0 mm 3 m/S 568 mmHg 91%
    11:00 -6°C° 0 mm 3 m/S 568 mmHg 91%
    12:00 -5°C° 0 mm 3 m/S 568 mmHg 92%
    13:00 -4°C° 0 mm 3 m/S 568 mmHg 92%
    14:00 -5°C° 0 mm 3 m/S 568 mmHg 91%
    15:00 -6°C° 0 mm 3 m/S 567 mmHg 91%
    16:00 -6°C° 0 mm 3 m/S 567 mmHg 90%
    17:00 -7°C° 0 mm 3 m/S 566 mmHg 90%
    18:00 -9°C° 0 mm 3 m/S 566 mmHg 90%
    19:00 -10°C° 0 mm 3 m/S 565 mmHg 89%
    20:00 -11°C° 0 mm 4 m/S 565 mmHg 90%
    21:00 -11°C° 0 mm 4 m/S 566 mmHg 90%
    22:00 -11°C° 0 mm 4 m/S 566 mmHg 91%
    23:00 -11°C° 0 mm 4 m/S 566 mmHg 90%

    22 November, Freitag

    Zeit Temperatur Niederschläge Wind Luftdruck Luftfeuchtigkeit
    00:00 -11°C° 0 mm 4 m/S 566 mmHg 90%
    01:00 -11°C° 0 mm 4 m/S 566 mmHg 90%
    02:00 -11°C° 0 mm 4 m/S 566 mmHg 90%
    03:00 -11°C° 0 mm 4 m/S 566 mmHg 89%
    04:00 -12°C° 0 mm 4 m/S 566 mmHg 89%
    05:00 -11°C° 0 mm 4 m/S 566 mmHg 89%
    06:00 -11°C° 0 mm 4 m/S 566 mmHg 88%
    07:00 -10°C° 0 mm 4 m/S 567 mmHg 87%
    08:00 -9°C° 0 mm 4 m/S 567 mmHg 88%
    09:00 -8°C° 0 mm 4 m/S 568 mmHg 89%
    10:00 -7°C° 0 mm 4 m/S 569 mmHg 90%
    11:00 -5°C° 0 mm 4 m/S 569 mmHg 91%
    12:00 -5°C° 0 mm 4 m/S 569 mmHg 93%
    13:00 -4°C° 0 mm 4 m/S 569 mmHg 95%
    14:00 -4°C° 0 mm 4 m/S 569 mmHg 94%
    15:00 -5°C° 0 mm 4 m/S 568 mmHg 92%
    16:00 -5°C° 0 mm 4 m/S 568 mmHg 91%
    17:00 -5°C° 0 mm 4 m/S 568 mmHg 91%
    18:00 -7°C° 0 mm 4 m/S 568 mmHg 91%
    19:00 -7°C° 0 mm 4 m/S 568 mmHg 91%
    20:00 -7°C° 0 mm 4 m/S 568 mmHg 91%
    21:00 -7°C° 0 mm 4 m/S 568 mmHg 91%
    22:00 -8°C° 0 mm 4 m/S 568 mmHg 91%
    23:00 -8°C° 0 mm 4 m/S 568 mmHg 91%
    Mehr zeigen